| time (UTC) | temp C | wind direction | speed KPH | gust KPH | rain 1hr cm | rain 24hr cm | rain mn cm | humidity % | barometer mb |
| 20260906221905 | 12 | 202 | 0.0 | 0.0 | 0.00 | 0.00 | 0.00 | 71 | 956.0 |
| 20260906221432 | 12 | 202 | 0.0 | 3.2 | 0.00 | 0.00 | 0.00 | 71 | 956.0 |
| 20260906220906 | 12 | 202 | 0.0 | 3.2 | 0.00 | 0.00 | 0.00 | 71 | 956.0 |
| 20260906220415 | 12 | 202 | 0.0 | 3.2 | 0.00 | 0.00 | 0.00 | 71 | 957.0 |
| 20260906215905 | 12 | 202 | 0.0 | 1.6 | 0.00 | 0.00 | 0.00 | 71 | 957.0 |
| 20260906215406 | 12 | 202 | 0.0 | 1.6 | 0.00 | 0.00 | 0.00 | 71 | 956.0 |
| 20260906214906 | 12 | 202 | 1.6 | 3.2 | 0.00 | 0.00 | 0.00 | 71 | 956.0 |
| 20260906214406 | 12 | 202 | 0.0 | 3.2 | 0.00 | 0.00 | 0.00 | 71 | 956.0 |
| 20260906213927 | 12 | 202 | 0.0 | 3.2 | 0.00 | 0.00 | 0.00 | 70 | 956.0 |
| 20260906213404 | 12 | 202 | 0.0 | 0.0 | 0.00 | 0.00 | 0.00 | 70 | 956.0 |
| 20260906212910 | 12 | 202 | 0.0 | 0.0 | 0.00 | 0.00 | 0.00 | 70 | 956.0 |
| 20260906212405 | 12 | 202 | 0.0 | 0.0 | 0.00 | 0.00 | 0.00 | 70 | 956.0 |
| 20260906211904 | 12 | 315 | 0.0 | 0.0 | 0.00 | 0.00 | 0.00 | 70 | 956.0 |
| 20260906211405 | 12 | 315 | 0.0 | 0.0 | 0.00 | 0.00 | 0.00 | 69 | 956.0 |
| 20260906210906 | 12 | 315 | 0.0 | 0.0 | 0.00 | 0.00 | 0.00 | 70 | 956.0 |
| 20260906210423 | 12 | 315 | 0.0 | 0.0 | 0.00 | 0.00 | 0.00 | 69 | 956.0 |
| 20260906205905 | 12 | 315 | 0.0 | 3.2 | 0.00 | 0.00 | 0.00 | 69 | 956.0 |
| 20260906205417 | 12 | 315 | 0.0 | 3.2 | 0.00 | 0.00 | 0.00 | 69 | 956.0 |
| 20260906204904 | 12 | 338 | 3.2 | 3.2 | 0.00 | 0.00 | 0.00 | 69 | 956.0 |
| 20260906204406 | 12 | 338 | 0.0 | 3.2 | 0.00 | 0.00 | 0.00 | 69 | 956.0 |
| 20260906203906 | 12 | 338 | 0.0 | 3.2 | 0.00 | 0.00 | 0.00 | 69 | 956.0 |
| 20260906203406 | 12 | 338 | 0.0 | 3.2 | 0.00 | 0.00 | 0.00 | 68 | 956.0 |
| 20260906202928 | 12 | 338 | 0.0 | 0.0 | 0.00 | 0.00 | 0.00 | 68 | 956.0 |
| 20260906202405 | 12 | 338 | 0.0 | 0.0 | 0.00 | 0.00 | 0.00 | 68 | 955.0 |
| 20260906201911 | 12 | 338 | 0.0 | 0.0 | 0.00 | 0.00 | 0.00 | 67 | 955.0 |
| 20260906201404 | 12 | 338 | 0.0 | 0.0 | 0.00 | 0.00 | 0.00 | 67 | 955.0 |
| 20260906200906 | 12 | 338 | 0.0 | 0.0 | 0.00 | 0.00 | 0.00 | 67 | 955.0 |
| 20260906200404 | 13 | 338 | 0.0 | 0.0 | 0.00 | 0.00 | 0.00 | 66 | 955.0 |
| 20260906195906 | 13 | 338 | 0.0 | 0.0 | 0.00 | 0.00 | 0.00 | 66 | 955.0 |
| 20260906195421 | 13 | 338 | 0.0 | 0.0 | 0.00 | 0.00 | 0.00 | 66 | 955.0 |
| 20260906194905 | 13 | 338 | 0.0 | 0.0 | 0.00 | 0.00 | 0.00 | 65 | 955.0 |
| 20260906194415 | 13 | 338 | 0.0 | 0.0 | 0.00 | 0.00 | 0.00 | 65 | 955.0 |
| 20260906193905 | 13 | 338 | 0.0 | 0.0 | 0.00 | 0.00 | 0.00 | 64 | 955.0 |
| 20260906193405 | 13 | 338 | 0.0 | 0.0 | 0.00 | 0.00 | 0.00 | 64 | 955.0 |
| 20260906192932 | 13 | 338 | 0.0 | 0.0 | 0.00 | 0.00 | 0.00 | 64 | 955.0 |
| 20260906192406 | 13 | 338 | 0.0 | 0.0 | 0.00 | 0.00 | 0.00 | 64 | 955.0 |
| 20260906191926 | 13 | 338 | 0.0 | 0.0 | 0.00 | 0.00 | 0.00 | 63 | 955.0 |
| 20260906191405 | 13 | 0 | 0.0 | 3.2 | 0.00 | 0.00 | 0.00 | 63 | 955.0 |
| 20260906190909 | 13 | 338 | 0.0 | 3.2 | 0.00 | 0.00 | 0.00 | 63 | 955.0 |
| 20260906190406 | 13 | 338 | 0.0 | 0.0 | 0.00 | 0.00 | 0.00 | 63 | 955.0 |
| 20260906185904 | 14 | 338 | 0.0 | 0.0 | 0.00 | 0.00 | 0.00 | 63 | 955.0 |
| 20260906185406 | 14 | 315 | 0.0 | 0.0 | 0.00 | 0.00 | 0.00 | 62 | 955.0 |
| 20260906184905 | 14 | 315 | 0.0 | 0.0 | 0.00 | 0.00 | 0.00 | 62 | 955.0 |
| 20260906184420 | 14 | 338 | 0.0 | 0.0 | 0.00 | 0.00 | 0.00 | 62 | 955.0 |
| 20260906183905 | 14 | 315 | 0.0 | 0.0 | 0.00 | 0.00 | 0.00 | 61 | 955.0 |
| 20260906183405 | 14 | 315 | 0.0 | 0.0 | 0.00 | 0.00 | 0.00 | 61 | 954.0 |
| 20260906182904 | 15 | 315 | 0.0 | 0.0 | 0.00 | 0.00 | 0.00 | 60 | 954.0 |
| 20260906182405 | 15 | 338 | 0.0 | 6.4 | 0.00 | 0.00 | 0.00 | 60 | 954.0 |
| 20260906181933 | 15 | 338 | 0.0 | 6.4 | 0.00 | 0.00 | 0.00 | 60 | 954.0 |
| 20260906181406 | 15 | 338 | 0.0 | 6.4 | 0.00 | 0.00 | 0.00 | 60 | 954.0 |
| 20260906180916 | 15 | 338 | 0.0 | 1.6 | 0.00 | 0.00 | 0.00 | 59 | 954.0 |
| 20260906180405 | 15 | 338 | 0.0 | 1.6 | 0.00 | 0.00 | 0.00 | 59 | 954.0 |
| 20260906175909 | 15 | 338 | 0.0 | 3.2 | 0.00 | 0.00 | 0.00 | 59 | 954.0 |
| 20260906175406 | 15 | 338 | 1.6 | 3.2 | 0.00 | 0.00 | 0.00 | 60 | 954.0 |
| 20260906174906 | 15 | 0 | 0.0 | 3.2 | 0.00 | 0.00 | 0.00 | 60 | 954.0 |
| 20260906174425 | 15 | 0 | 0.0 | 3.2 | 0.00 | 0.00 | 0.00 | 60 | 954.0 |
| 20260906173904 | 15 | 0 | 0.0 | 3.2 | 0.00 | 0.00 | 0.00 | 59 | 954.0 |
| 20260906173419 | 15 | 0 | 0.0 | 3.2 | 0.00 | 0.00 | 0.00 | 59 | 954.0 |
| 20260906172905 | 15 | 0 | 0.0 | 3.2 | 0.00 | 0.00 | 0.00 | 59 | 954.0 |
| 20260906172406 | 15 | 0 | 1.6 | 3.2 | 0.00 | 0.00 | 0.00 | 60 | 953.0 |
| 20260906171938 | 16 | 0 | 0.0 | 3.2 | 0.00 | 0.00 | 0.00 | 59 | 953.0 |
| 20260906171405 | 16 | 0 | 0.0 | 0.0 | 0.00 | 0.00 | 0.00 | 59 | 953.0 |
| 20260906170930 | 16 | 0 | 0.0 | 3.2 | 0.00 | 0.00 | 0.00 | 59 | 953.0 |
| 20260906170406 | 16 | 0 | 0.0 | 3.2 | 0.00 | 0.00 | 0.00 | 59 | 953.0 |
| 20260906165914 | 16 | 0 | 0.0 | 3.2 | 0.00 | 0.00 | 0.00 | 59 | 953.0 |
| 20260906165405 | 16 | 0 | 0.0 | 3.2 | 0.00 | 0.00 | 0.00 | 58 | 953.0 |
| 20260906164906 | 16 | 0 | 0.0 | 3.2 | 0.00 | 0.00 | 0.00 | 58 | 953.0 |
| 20260906164404 | 16 | 0 | 0.0 | 3.2 | 0.00 | 0.00 | 0.00 | 58 | 952.0 |
| 20260906163904 | 16 | 0 | 0.0 | 3.2 | 0.00 | 0.00 | 0.00 | 57 | 953.0 |
| 20260906163419 | 17 | 0 | 0.0 | 6.4 | 0.00 | 0.00 | 0.00 | 57 | 952.0 |
| 20260906162914 | 17 | 0 | 0.0 | 6.4 | 0.00 | 0.00 | 0.00 | 56 | 952.0 |
| 20260906162411 | 17 | 0 | 0.0 | 6.4 | 0.00 | 0.00 | 0.00 | 56 | 952.0 |
| 20260906161905 | 17 | 0 | 0.0 | 6.4 | 0.00 | 0.00 | 0.00 | 56 | 952.0 |
| 20260906161405 | 17 | 0 | 0.0 | 6.4 | 0.00 | 0.00 | 0.00 | 56 | 952.0 |
| 20260906160926 | 17 | 0 | 0.0 | 4.8 | 0.00 | 0.00 | 0.00 | 56 | 952.0 |
| 20260906160424 | 17 | 0 | 3.2 | 4.8 | 0.00 | 0.00 | 0.00 | 56 | 952.0 |
| 20260906155919 | 17 | 0 | 0.0 | 6.4 | 0.00 | 0.00 | 0.00 | 56 | 952.0 |
| 20260906155405 | 17 | 0 | 0.0 | 6.4 | 0.00 | 0.00 | 0.00 | 55 | 952.0 |
| 20260906154906 | 17 | 0 | 3.2 | 6.4 | 0.00 | 0.00 | 0.00 | 55 | 952.0 |
| 20260906154404 | 18 | 0 | 0.0 | 6.4 | 0.00 | 0.00 | 0.00 | 55 | 952.0 |
| 20260906153936 | 18 | 0 | 3.2 | 6.4 | 0.00 | 0.00 | 0.00 | 54 | 951.0 |
| 20260906153433 | 18 | 0 | 3.2 | 6.4 | 0.00 | 0.00 | 0.00 | 54 | 951.0 |
| 20260906152906 | 18 | 0 | 0.0 | 0.0 | 0.00 | 0.00 | 0.00 | 54 | 951.0 |
| 20260906152414 | 18 | 22 | 0.0 | 4.8 | 0.00 | 0.00 | 0.00 | 54 | 951.0 |
| 20260906151904 | 18 | 22 | 0.0 | 4.8 | 0.00 | 0.00 | 0.00 | 54 | 951.0 |
| 20260906151449 | 18 | 22 | 0.0 | 4.8 | 0.00 | 0.00 | 0.00 | 54 | 951.0 |
| 20260906150906 | 18 | 45 | 0.0 | 3.2 | 0.00 | 0.00 | 0.00 | 54 | 951.0 |
| 20260906150404 | 18 | 22 | 0.0 | 3.2 | 0.00 | 0.00 | 0.00 | 55 | 951.0 |
| 20260906145929 | 18 | 22 | 0.0 | 3.2 | 0.00 | 0.00 | 0.00 | 55 | 951.0 |
| 20260906145405 | 18 | 22 | 0.0 | 3.2 | 0.00 | 0.00 | 0.00 | 55 | 951.0 |
| 20260906145001 | 18 | 22 | 0.0 | 3.2 | 0.00 | 0.00 | 0.00 | 55 | 951.0 |
| 20260906144405 | 18 | 22 | 0.0 | 12.9 | 0.00 | 0.00 | 0.00 | 55 | 951.0 |
| 20260906143906 | 18 | 22 | 3.2 | 12.9 | 0.00 | 0.00 | 0.00 | 55 | 951.0 |
| 20260906143405 | 18 | 22 | 0.0 | 12.9 | 0.00 | 0.00 | 0.00 | 55 | 951.0 |
| 20260906142905 | 18 | 22 | 4.8 | 8.0 | 0.00 | 0.00 | 0.00 | 55 | 951.0 |
| 20260906142510 | 18 | 0 | 6.4 | 8.0 | 0.00 | 0.00 | 0.00 | 55 | 951.0 |
| 20260906141904 | 18 | 22 | 0.0 | 3.2 | 0.00 | 0.00 | 0.00 | 56 | 950.0 |
| 20260906141414 | 18 | 22 | 0.0 | 3.2 | 0.00 | 0.00 | 0.00 | 56 | 950.0 |
| 20260906140905 | 18 | 22 | 0.0 | 6.4 | 0.00 | 0.00 | 0.00 | 55 | 950.0 |
| 20260906140404 | 18 | 22 | 0.0 | 6.4 | 0.00 | 0.00 | 0.00 | 56 | 950.0 |
| 20260906135905 | 18 | 22 | 3.2 | 6.4 | 0.00 | 0.00 | 0.00 | 56 | 950.0 |
| 20260906135405 | 19 | 315 | 3.2 | 6.4 | 0.00 | 0.00 | 0.00 | 56 | 950.0 |
| 20260906134928 | 19 | 338 | 6.4 | 9.7 | 0.00 | 0.00 | 0.00 | 56 | 951.0 |
| 20260906134404 | 19 | 315 | 3.2 | 9.7 | 0.00 | 0.00 | 0.00 | 55 | 951.0 |
| 20260906133912 | 19 | 0 | 0.0 | 9.7 | 0.00 | 0.00 | 0.00 | 55 | 950.0 |
| 20260906133404 | 20 | 0 | 3.2 | 8.0 | 0.00 | 0.00 | 0.00 | 54 | 950.0 |
| 20260906132905 | 20 | 338 | 1.6 | 11.3 | 0.00 | 0.00 | 0.00 | 54 | 950.0 |
| 20260906132404 | 20 | 0 | 0.0 | 11.3 | 0.00 | 0.00 | 0.00 | 53 | 950.0 |
| 20260906131905 | 20 | 338 | 3.2 | 11.3 | 0.00 | 0.00 | 0.00 | 53 | 950.0 |
| 20260906131422 | 20 | 22 | 0.0 | 6.4 | 0.00 | 0.00 | 0.00 | 53 | 950.0 |
| 20260906130905 | 20 | 0 | 3.2 | 4.8 | 0.00 | 0.00 | 0.00 | 53 | 950.0 |
| 20260906130415 | 20 | 22 | 1.6 | 4.8 | 0.00 | 0.00 | 0.00 | 53 | 950.0 |
| 20260906125905 | 20 | 338 | 0.0 | 3.2 | 0.00 | 0.00 | 0.00 | 54 | 950.0 |
| 20260906125405 | 20 | 338 | 0.0 | 3.2 | 0.00 | 0.00 | 0.00 | 55 | 950.0 |
| 20260906124904 | 20 | 338 | 1.6 | 3.2 | 0.00 | 0.00 | 0.00 | 56 | 950.0 |
| 20260906124404 | 20 | 338 | 3.2 | 3.2 | 0.00 | 0.00 | 0.00 | 57 | 950.0 |
| 20260906123904 | 20 | 338 | 0.0 | 1.6 | 0.00 | 0.00 | 0.00 | 57 | 950.0 |
| 20260906123426 | 20 | 338 | 0.0 | 4.8 | 0.00 | 0.00 | 0.00 | 57 | 950.0 |
| 20260906122905 | 20 | 22 | 0.0 | 4.8 | 0.00 | 0.00 | 0.00 | 57 | 950.0 |
| 20260906122409 | 20 | 22 | 1.6 | 8.0 | 0.00 | 0.00 | 0.00 | 56 | 950.0 |
| 20260906121905 | 21 | 338 | 0.0 | 8.0 | 0.00 | 0.00 | 0.00 | 56 | 950.0 |
| 20260906121405 | 20 | 22 | 0.0 | 8.0 | 0.00 | 0.00 | 0.00 | 56 | 950.0 |
| 20260906120904 | 20 | 45 | 3.2 | 9.7 | 0.00 | 0.00 | 0.00 | 58 | 950.0 |
| 20260906120405 | 20 | 22 | 4.8 | 9.7 | 0.00 | 0.00 | 0.00 | 59 | 950.0 |
| 20260906115921 | 20 | 0 | 3.2 | 9.7 | 0.00 | 0.00 | 0.00 | 61 | 950.0 |
| 20260906115405 | 20 | 22 | 3.2 | 4.8 | 0.00 | 0.00 | 0.00 | 62 | 950.0 |
| 20260906114914 | 19 | 0 | 3.2 | 4.8 | 0.00 | 0.00 | 0.00 | 62 | 950.0 |
| 20260906114405 | 19 | 338 | 0.0 | 0.0 | 0.00 | 0.00 | 0.00 | 62 | 950.0 |
| 20260906113905 | 19 | 338 | 0.0 | 0.0 | 0.00 | 0.00 | 0.00 | 62 | 950.0 |
| 20260906113432 | 19 | 338 | 0.0 | 0.0 | 0.00 | 0.00 | 0.00 | 61 | 950.0 |
| 20260906112904 | 20 | 338 | 0.0 | 8.0 | 0.00 | 0.00 | 0.00 | 59 | 950.0 |
| 20260906112424 | 21 | 338 | 0.0 | 8.0 | 0.00 | 0.00 | 0.00 | 59 | 950.0 |
| 20260906111904 | 22 | 338 | 8.0 | 8.0 | 0.00 | 0.00 | 0.00 | 60 | 950.0 |
| 20260906111409 | 22 | 22 | 3.2 | 6.4 | 0.00 | 0.00 | 0.00 | 62 | 950.0 |
| 20260906110904 | 22 | 0 | 0.0 | 3.2 | 0.00 | 0.00 | 0.00 | 66 | 950.0 |
| 20260906110405 | 22 | 0 | 0.0 | 0.0 | 0.00 | 0.00 | 0.00 | 67 | 950.0 |
| 20260906105905 | 21 | 315 | 0.0 | 0.0 | 0.00 | 0.00 | 0.00 | 70 | 950.0 |
| 20260906105404 | 21 | 315 | 0.0 | 0.0 | 0.00 | 0.00 | 0.00 | 71 | 950.0 |
| 20260906104920 | 21 | 338 | 0.0 | 0.0 | 0.00 | 0.00 | 0.00 | 72 | 950.0 |
| 20260906104405 | 20 | 338 | 0.0 | 0.0 | 0.00 | 0.00 | 0.00 | 73 | 950.0 |
| 20260906103912 | 20 | 338 | 0.0 | 0.0 | 0.00 | 0.00 | 0.00 | 74 | 950.0 |
| 20260906103404 | 19 | 338 | 0.0 | 0.0 | 0.00 | 0.00 | 0.00 | 77 | 950.0 |
| 20260906102905 | 18 | 338 | 0.0 | 0.0 | 0.00 | 0.00 | 0.00 | 77 | 950.0 |
| 20260906102430 | 18 | 338 | 0.0 | 0.0 | 0.00 | 0.00 | 0.00 | 78 | 950.0 |
| 20260906101905 | 17 | 338 | 0.0 | 0.0 | 0.00 | 0.00 | 0.00 | 78 | 950.0 |
| 20260906101424 | 16 | 338 | 0.0 | 0.0 | 0.00 | 0.00 | 0.00 | 78 | 950.0 |
| 20260906100905 | 16 | 338 | 0.0 | 0.0 | 0.00 | 0.00 | 0.00 | 78 | 950.0 |
| 20260906100406 | 16 | 0 | 0.0 | 0.0 | 0.00 | 0.00 | 0.00 | 78 | 950.0 |
| 20260906095904 | 16 | 0 | 0.0 | 0.0 | 0.00 | 0.00 | 0.00 | 78 | 950.0 |
| 20260906095404 | 15 | 0 | 0.0 | 0.0 | 0.00 | 0.00 | 0.00 | 78 | 950.0 |
| 20260906094905 | 15 | 0 | 0.0 | 0.0 | 0.00 | 0.00 | 0.00 | 77 | 950.0 |
| 20260906094405 | 15 | 0 | 0.0 | 0.0 | 0.00 | 0.00 | 0.00 | 77 | 950.0 |
| 20260906093916 | 15 | 0 | 0.0 | 0.0 | 0.00 | 0.00 | 0.00 | 76 | 950.0 |
| 20260906093403 | 14 | 0 | 0.0 | 0.0 | 0.00 | 0.00 | 0.00 | 76 | 950.0 |
| 20260906092905 | 14 | 0 | 0.0 | 0.0 | 0.00 | 0.00 | 0.00 | 75 | 950.0 |
| 20260906092403 | 15 | 0 | 0.0 | 0.0 | 0.00 | 0.00 | 0.00 | 75 | 950.0 |
| 20260906091905 | 15 | 0 | 0.0 | 3.2 | 0.00 | 0.00 | 0.00 | 74 | 950.0 |
| 20260906091427 | 15 | 0 | 0.0 | 4.8 | 0.00 | 0.00 | 0.00 | 73 | 950.0 |
| 20260906090904 | 16 | 0 | 3.2 | 4.8 | 0.00 | 0.00 | 0.00 | 72 | 950.0 |
| 20260906090412 | 16 | 0 | 0.0 | 4.8 | 0.00 | 0.00 | 0.00 | 71 | 950.0 |
| 20260906085905 | 16 | 22 | 4.8 | 8.0 | 0.00 | 0.00 | 0.00 | 71 | 950.0 |
| 20260906085404 | 17 | 338 | 0.0 | 8.0 | 0.00 | 0.00 | 0.00 | 72 | 950.0 |
| 20260906084904 | 17 | 315 | 0.0 | 8.0 | 0.00 | 0.00 | 0.00 | 72 | 950.0 |
| 20260906084405 | 17 | 22 | 0.0 | 9.7 | 0.00 | 0.00 | 0.00 | 72 | 950.0 |
| 20260906083921 | 17 | 0 | 3.2 | 9.7 | 0.00 | 0.00 | 0.00 | 73 | 950.0 |
| 20260906083406 | 17 | 22 | 0.0 | 9.7 | 0.00 | 0.00 | 0.00 | 73 | 950.0 |
| 20260906082916 | 17 | 22 | 3.2 | 3.2 | 0.00 | 0.00 | 0.00 | 74 | 950.0 |
| 20260906082406 | 16 | 22 | 0.0 | 1.6 | 0.00 | 0.00 | 0.00 | 74 | 950.0 |
| 20260906081905 | 16 | 22 | 0.0 | 1.6 | 0.00 | 0.00 | 0.00 | 74 | 950.0 |
| 20260906081431 | 16 | 22 | 0.0 | 0.0 | 0.00 | 0.00 | 0.00 | 74 | 950.0 |
| 20260906080906 | 16 | 22 | 0.0 | 0.0 | 0.00 | 0.00 | 0.00 | 73 | 950.0 |
| 20260906080424 | 16 | 22 | 0.0 | 0.0 | 0.00 | 0.00 | 0.00 | 72 | 950.0 |
| 20260906075906 | 16 | 22 | 0.0 | 0.0 | 0.00 | 0.00 | 0.00 | 71 | 950.0 |
| 20260906075407 | 17 | 22 | 0.0 | 6.4 | 0.00 | 0.00 | 0.00 | 70 | 950.0 |
| 20260906074906 | 17 | 22 | 0.0 | 6.4 | 0.00 | 0.00 | 0.00 | 70 | 950.0 |
| 20260906074406 | 17 | 22 | 0.0 | 6.4 | 0.00 | 0.00 | 0.00 | 70 | 950.0 |
| 20260906073905 | 17 | 0 | 0.0 | 4.8 | 0.00 | 0.00 | 0.00 | 70 | 950.0 |
| 20260906073406 | 17 | 0 | 0.0 | 4.8 | 0.00 | 0.00 | 0.00 | 71 | 950.0 |
| 20260906072919 | 17 | 0 | 4.8 | 4.8 | 0.00 | 0.00 | 0.00 | 72 | 950.0 |
| 20260906072417 | 17 | 0 | 0.0 | 0.0 | 0.00 | 0.00 | 0.00 | 72 | 950.0 |
| 20260906071914 | 18 | 0 | 0.0 | 0.0 | 0.00 | 0.00 | 0.00 | 72 | 950.0 |
| 20260906071407 | 18 | 0 | 0.0 | 0.0 | 0.00 | 0.00 | 0.00 | 73 | 950.0 |
| 20260906070906 | 18 | 0 | 0.0 | 3.2 | 0.00 | 0.00 | 0.00 | 74 | 950.0 |
| 20260906070431 | 18 | 0 | 0.0 | 3.2 | 0.00 | 0.00 | 0.00 | 75 | 950.0 |
| 20260906065930 | 18 | 0 | 3.2 | 3.2 | 0.00 | 0.00 | 0.00 | 76 | 950.0 |
| 20260906065424 | 18 | 0 | 0.0 | 0.0 | 0.00 | 0.00 | 0.00 | 77 | 950.0 |
| 20260906064906 | 17 | 0 | 0.0 | 0.0 | 0.00 | 0.00 | 0.00 | 77 | 949.0 |
| 20260906064409 | 17 | 0 | 0.0 | 0.0 | 0.00 | 0.00 | 0.00 | 78 | 949.0 |
| 20260906063907 | 17 | 0 | 0.0 | 0.0 | 0.00 | 0.00 | 0.00 | 79 | 949.0 |
| 20260906063442 | 17 | 0 | 0.0 | 0.0 | 0.00 | 0.00 | 0.00 | 80 | 949.0 |
| 20260906062907 | 17 | 0 | 0.0 | 0.0 | 0.00 | 0.00 | 0.00 | 80 | 949.0 |
| 20260906062407 | 17 | 0 | 0.0 | 0.0 | 0.00 | 0.00 | 0.00 | 81 | 949.0 |
| 20260906061921 | 16 | 0 | 0.0 | 0.0 | 0.00 | 0.00 | 0.00 | 82 | 949.0 |
| 20260906061407 | 16 | 0 | 0.0 | 0.0 | 0.00 | 0.00 | 0.00 | 82 | 949.0 |
| 20260906060952 | 16 | 0 | 0.0 | 0.0 | 0.00 | 0.00 | 0.00 | 83 | 949.0 |
| 20260906060407 | 16 | 0 | 0.0 | 0.0 | 0.00 | 0.00 | 0.00 | 84 | 949.0 |
| 20260906055908 | 16 | 0 | 0.0 | 0.0 | 0.00 | 0.00 | 0.00 | 84 | 949.0 |
| 20260906055432 | 16 | 0 | 0.0 | 0.0 | 0.00 | 0.00 | 0.00 | 84 | 949.0 |
| 20260906054906 | 15 | 0 | 0.0 | 0.0 | 0.00 | 24.97 | 0.00 | 85 | 949.0 |
| 20260906054505 | 15 | 0 | 0.0 | 0.0 | 0.00 | 0.00 | 0.00 | 85 | 949.0 |
| 20260906053908 | 15 | 0 | 0.0 | 0.0 | 0.00 | 0.00 | 0.00 | 85 | 949.0 |
| 20260906053410 | 15 | 0 | 0.0 | 0.0 | 0.00 | 0.00 | 0.00 | 85 | 949.0 |
| 20260906052908 | 14 | 0 | 0.0 | 0.0 | 0.00 | 0.00 | 0.00 | 86 | 949.0 |
| 20260906052408 | 14 | 0 | 0.0 | 0.0 | 0.00 | 0.00 | 0.00 | 86 | 949.0 |
| 20260906051907 | 14 | 0 | 0.0 | 0.0 | 0.00 | 0.00 | 0.00 | 86 | 949.0 |
| 20260906051408 | 14 | 0 | 0.0 | 0.0 | 0.00 | 0.00 | 0.00 | 86 | 949.0 |
| 20260906050920 | 14 | 0 | 0.0 | 0.0 | 0.00 | 0.00 | 0.00 | 86 | 949.0 |
| 20260906050409 | 14 | 0 | 0.0 | 0.0 | 0.00 | 0.00 | 0.00 | 86 | 949.0 |
| 20260906045907 | 14 | 0 | 0.0 | 0.0 | 0.00 | 0.00 | 0.00 | 86 | 949.0 |
| 20260906045409 | 13 | 0 | 0.0 | 0.0 | 0.00 | 0.00 | 0.00 | 87 | 949.0 |
| 20260906044908 | 13 | 0 | 0.0 | 0.0 | 0.00 | 0.00 | 0.00 | 87 | 949.0 |
| 20260906044430 | 13 | 0 | 0.0 | 0.0 | 0.00 | 0.00 | 0.00 | 87 | 949.0 |
| 20260906043908 | 13 | 0 | 0.0 | 0.0 | 0.00 | 0.00 | 0.00 | 87 | 949.0 |
| 20260906043414 | 13 | 0 | 0.0 | 0.0 | 0.00 | 0.00 | 0.00 | 87 | 949.0 |
| 20260906042909 | 13 | 0 | 0.0 | 0.0 | 0.00 | 0.00 | 0.00 | 87 | 949.0 |
| 20260906042409 | 13 | 0 | 0.0 | 0.0 | 0.00 | 0.00 | 0.00 | 87 | 949.0 |
| 20260906041909 | 13 | 0 | 0.0 | 0.0 | 0.00 | 0.00 | 0.00 | 87 | 949.0 |
| 20260906041410 | 12 | 0 | 0.0 | 0.0 | 0.00 | 0.00 | 0.00 | 87 | 949.0 |
| 20260906040926 | 12 | 0 | 0.0 | 0.0 | 0.00 | 0.00 | 0.00 | 87 | 949.0 |
| 20260906040408 | 12 | 0 | 0.0 | 0.0 | 0.00 | 0.00 | 0.00 | 87 | 949.0 |
| 20260906035919 | 12 | 0 | 0.0 | 0.0 | 0.00 | 0.00 | 0.00 | 87 | 949.0 |
| 20260906035408 | 12 | 0 | 0.0 | 0.0 | 0.00 | 0.00 | 0.00 | 87 | 949.0 |
| 20260906034909 | 12 | 0 | 0.0 | 0.0 | 0.00 | 0.00 | 0.00 | 87 | 949.0 |
| 20260906034436 | 12 | 0 | 0.0 | 0.0 | 0.00 | 0.00 | 0.00 | 87 | 949.0 |
| 20260906033909 | 12 | 0 | 0.0 | 0.0 | 0.00 | 0.00 | 0.00 | 87 | 948.0 |
| 20260906033430 | 12 | 0 | 0.0 | 0.0 | 0.00 | 0.00 | 0.00 | 87 | 948.0 |
| 20260906032909 | 12 | 0 | 0.0 | 0.0 | 0.00 | 0.00 | 0.00 | 87 | 948.0 |
| 20260906032413 | 12 | 0 | 0.0 | 0.0 | 0.00 | 0.00 | 0.00 | 87 | 949.0 |
| 20260906031909 | 12 | 0 | 0.0 | 1.6 | 0.00 | 0.00 | 0.00 | 87 | 948.0 |
| 20260906031410 | 11 | 0 | 0.0 | 1.6 | 0.00 | 0.00 | 0.00 | 87 | 949.0 |
| 20260906030909 | 12 | 0 | 0.0 | 1.6 | 0.00 | 0.00 | 0.00 | 87 | 949.0 |
| 20260906030409 | 12 | 0 | 0.0 | 0.0 | 0.00 | 0.00 | 0.00 | 87 | 948.0 |
| 20260906025927 | 12 | 0 | 0.0 | 0.0 | 0.00 | 0.00 | 0.00 | 87 | 948.0 |
| 20260906025411 | 12 | 0 | 0.0 | 0.0 | 0.00 | 0.00 | 0.00 | 87 | 948.0 |
| 20260906024922 | 12 | 0 | 0.0 | 0.0 | 0.00 | 0.00 | 0.00 | 87 | 948.0 |
| 20260906024411 | 12 | 0 | 0.0 | 0.0 | 0.00 | 0.00 | 0.00 | 86 | 948.0 |
| 20260906023911 | 12 | 0 | 0.0 | 0.0 | 0.00 | 0.00 | 0.00 | 86 | 948.0 |
| 20260906023410 | 12 | 0 | 0.0 | 0.0 | 0.00 | 0.00 | 0.00 | 86 | 948.0 |
| 20260906022910 | 12 | 0 | 0.0 | 0.0 | 0.00 | 0.00 | 0.00 | 86 | 948.0 |
| 20260906022431 | 12 | 0 | 0.0 | 0.0 | 0.00 | 0.00 | 0.00 | 86 | 948.0 |
| 20260906021910 | 12 | 0 | 0.0 | 0.0 | 0.00 | 0.00 | 0.00 | 86 | 948.0 |
| 20260906021415 | 12 | 0 | 0.0 | 0.0 | 0.00 | 0.00 | 0.00 | 86 | 948.0 |
| 20260906020911 | 12 | 0 | 0.0 | 0.0 | 0.00 | 0.00 | 0.00 | 86 | 948.0 |
| 20260906020411 | 12 | 0 | 0.0 | 0.0 | 0.00 | 0.00 | 0.00 | 86 | 948.0 |
| 20260906015911 | 12 | 0 | 0.0 | 0.0 | 0.00 | 0.00 | 0.00 | 86 | 948.0 |
| 20260906015411 | 12 | 0 | 0.0 | 0.0 | 0.00 | 0.00 | 0.00 | 86 | 948.0 |
| 20260906014927 | 12 | 0 | 0.0 | 0.0 | 0.00 | 0.00 | 0.00 | 85 | 948.0 |
| 20260906014412 | 12 | 0 | 0.0 | 0.0 | 0.00 | 0.00 | 0.00 | 85 | 948.0 |
| 20260906013912 | 12 | 0 | 0.0 | 0.0 | 0.00 | 0.00 | 0.00 | 85 | 948.0 |
| 20260906013411 | 12 | 0 | 0.0 | 0.0 | 0.00 | 0.00 | 0.00 | 85 | 948.0 |
| 20260906012911 | 12 | 0 | 0.0 | 0.0 | 0.00 | 0.00 | 0.00 | 85 | 948.0 |
| 20260906012439 | 12 | 0 | 0.0 | 0.0 | 0.00 | 0.00 | 0.00 | 85 | 948.0 |
| 20260906011912 | 12 | 0 | 0.0 | 0.0 | 0.00 | 0.00 | 0.00 | 85 | 948.0 |
| 20260906011423 | 12 | 0 | 0.0 | 0.0 | 0.00 | 0.00 | 0.00 | 85 | 948.0 |
| 20260906010911 | 12 | 0 | 0.0 | 0.0 | 0.00 | 0.00 | 0.00 | 85 | 948.0 |
| 20260906010419 | 12 | 0 | 0.0 | 0.0 | 0.00 | 0.00 | 0.00 | 85 | 948.0 |
| 20260906005912 | 12 | 0 | 0.0 | 0.0 | 0.00 | 0.00 | 0.00 | 85 | 948.0 |
| 20260906005411 | 12 | 0 | 0.0 | 0.0 | 0.00 | 0.00 | 0.00 | 85 | 947.0 |
| 20260906004936 | 12 | 0 | 0.0 | 0.0 | 0.00 | 0.00 | 0.00 | 85 | 948.0 |
| 20260906004412 | 12 | 0 | 0.0 | 0.0 | 0.00 | 0.00 | 0.00 | 85 | 948.0 |
| 20260906003930 | 12 | 0 | 0.0 | 0.0 | 0.00 | 0.00 | 0.00 | 85 | 948.0 |
| 20260906003413 | 12 | 0 | 0.0 | 0.0 | 0.00 | 0.00 | 0.00 | 85 | 948.0 |
| 20260906002915 | 12 | 0 | 0.0 | 0.0 | 0.00 | 0.00 | 0.00 | 85 | 948.0 |
| 20260906002413 | 12 | 0 | 0.0 | 0.0 | 0.00 | 0.00 | 0.00 | 85 | 948.0 |
| 20260906001913 | 12 | 0 | 0.0 | 0.0 | 0.00 | 0.00 | 0.00 | 85 | 948.0 |
| 20260906001412 | 12 | 0 | 0.0 | 0.0 | 0.00 | 0.00 | 0.00 | 85 | 948.0 |
| 20260906000912 | 12 | 0 | 0.0 | 0.0 | 0.00 | 0.00 | 0.00 | 85 | 948.0 |
| 20260906000426 | 12 | 0 | 0.0 | 0.0 | 0.00 | 0.00 | 0.00 | 85 | 948.0 |
| 20260905235913 | 13 | 0 | 0.0 | 0.0 | 0.00 | 0.00 | 0.00 | 85 | 948.0 |
| 20260905235419 | 13 | 0 | 0.0 | 0.0 | 0.00 | 0.00 | 0.00 | 85 | 948.0 |
| 20260905234913 | 13 | 0 | 0.0 | 0.0 | 0.00 | 0.00 | 0.00 | 85 | 948.0 |
| 20260905234412 | 13 | 0 | 0.0 | 0.0 | 0.00 | 0.00 | 0.00 | 84 | 948.0 |
| 20260905233936 | 13 | 0 | 0.0 | 0.0 | 0.00 | 0.00 | 0.00 | 84 | 948.0 |
| 20260905233414 | 13 | 0 | 0.0 | 0.0 | 0.00 | 0.00 | 0.00 | 84 | 948.0 |
| 20260905232932 | 13 | 0 | 0.0 | 0.0 | 0.00 | 0.00 | 0.00 | 84 | 948.0 |
| 20260905232414 | 13 | 0 | 0.0 | 0.0 | 0.00 | 0.00 | 0.00 | 84 | 948.0 |
| 20260905231916 | 13 | 0 | 0.0 | 0.0 | 0.00 | 0.00 | 0.00 | 84 | 948.0 |
| 20260905231414 | 13 | 0 | 0.0 | 0.0 | 0.00 | 0.00 | 0.00 | 84 | 948.0 |
| 20260905230913 | 13 | 0 | 0.0 | 0.0 | 0.00 | 0.00 | 0.00 | 84 | 948.0 |
| 20260905230413 | 13 | 0 | 0.0 | 0.0 | 0.00 | 0.00 | 0.00 | 84 | 948.0 |
| 20260905225913 | 13 | 0 | 0.0 | 0.0 | 0.00 | 0.00 | 0.00 | 84 | 948.0 |
| 20260905225428 | 13 | 0 | 0.0 | 0.0 | 0.00 | 0.00 | 0.00 | 84 | 948.0 |
| 20260905224912 | 13 | 0 | 0.0 | 0.0 | 0.00 | 0.00 | 0.00 | 84 | 948.0 |
| 20260905224413 | 13 | 0 | 0.0 | 0.0 | 0.00 | 0.00 | 0.00 | 84 | 948.0 |
| 20260905223914 | 13 | 0 | 0.0 | 0.0 | 0.00 | 0.00 | 0.00 | 84 | 948.0 |
| 20260905223413 | 13 | 0 | 0.0 | 0.0 | 0.00 | 0.00 | 0.00 | 84 | 948.0 |
| 20260905222937 | 13 | 0 | 0.0 | 0.0 | 0.00 | 0.00 | 0.00 | 84 | 948.0 |
| 20260905222414 | 13 | 0 | 0.0 | 0.0 | 0.00 | 0.00 | 0.00 | 84 | 948.0 |